Weather in Kikinda

Serbia     45°49′37″N   20°28′01″E
temp.,
°C
wind,
m/s
gust,
m/s
humid.,
%
clouds,
%
prec.,
mm/h
press.,
hPa
HPBL,
m
23 april, fri
fri2323:00+9n33893 0.0 101859
02:00+9nnw6137796 0.6 1019407
05:00+8nw4979100 0.2 1021237
08:00+9nw59610 0.2 1023627
11:00+13nw67441 0.0 10241515
14:00+14nw67405 0.0 10232064
17:00+14nnw67395 0.0 10232127
20:00+9nnw34581 0.0 102452
24 april, sat
sat2423:00+7nw22650 0.0 102611
02:00+6wnw33675 0.0 102525
05:00+5nw34730 0.0 102555
08:00+8nnw34600 0.0 1026315
11:00+12nw33460 0.0 10251155
14:00+15nnw33390 0.0 10231528
17:00+15n33435 0.0 10211575
20:00+10nne33635 0.0 102222
25 april, sun
sun2523:00+8ne22715 0.0 102217
02:00+7e12755 0.0 102210
05:00+6se11797 0.0 102110
08:00+10ese116663 0.0 1021194
11:00+15ese224837 0.0 10201047
14:00+17ene1142100 0.0 10191636
17:00+17nnw23437 0.0 10181814
20:00+14nne2256100 0.0 101819
26 april, mon
mon2623:00+12n36656 0.0 1019178
02:00+10n3774100 0.0 1019252
05:00+8nne3678100 0.0 1019228
08:00+8ne57737 0.0 1019241
11:00+12nne4459100 0.0 1019726
14:00+14ne4349100 0.0 10181316
17:00+13nne5456100 0.0 10161029
20:00+8nne4774100 0.1 1017226
27 april, tue
tue2723:00+7nne2378100 0.0 101756
02:00+7n2578100 0.0 1017246
05:00+6ne3684100 0.0 1016218
08:00+8ene2373100 0.0 1017282
11:00+13e3452100 0.0 10161030
14:00+14ese4445100 0.0 10131361
17:00+13se3658100 0.0 1011490
20:00+9e2692100 1.9 1010361